AVA9396 SKBO-SKMR

Flight info

Callsign AVA9396
Flight time 0h 47m
Altitude 32000
Route OSUSU4R GIKPU UQ120 PADUD DCT XOGEN XOGEN2A
Aircraft A320/M-SDE3FGHIRWY/LB1

Departure

Time 2026-05-06 14:25
Airport El Dorado International Airport (SKBO)

Arrival

Time 2026-05-06 15:13
Airport Los Garzones Airport (SKMR)
Time Latitude Longitude Altitude Speed Heading
2026-05-06 14:03 4.69883 -74.14460 8373 ft 0 kts 227°
2026-05-06 14:16 4.69895 -74.14446 8373 ft 4 kts 227°
2026-05-06 14:16 4.69909 -74.14430 8370 ft 4 kts 249°
2026-05-06 14:16 4.69911 -74.14405 8373 ft 4 kts 292°
2026-05-06 14:16 4.69903 -74.14390 8373 ft 0 kts 307°
2026-05-06 14:19 4.69908 -74.14398 8373 ft 4 kts 307°
2026-05-06 14:20 4.69928 -74.14424 8372 ft 4 kts 307°
2026-05-06 14:20 4.69949 -74.14451 8371 ft 7 kts 307°
2026-05-06 14:20 4.69985 -74.14499 8373 ft 9 kts 307°
2026-05-06 14:20 4.70020 -74.14544 8373 ft 7 kts 307°
2026-05-06 14:21 4.70047 -74.14576 8373 ft 5 kts 323°
2026-05-06 14:21 4.70081 -74.14571 8373 ft 6 kts 24°
2026-05-06 14:21 4.70123 -74.14541 8372 ft 10 kts 37°
2026-05-06 14:21 4.70190 -74.14491 8373 ft 14 kts 36°
2026-05-06 14:22 4.70282 -74.14423 8373 ft 18 kts 36°
2026-05-06 14:22 4.70391 -74.14344 8373 ft 18 kts 34°
2026-05-06 14:22 4.70479 -74.14399 8373 ft 17 kts 306°
2026-05-06 14:22 4.70560 -74.14508 8369 ft 22 kts 307°
2026-05-06 14:23 4.70656 -74.14633 8373 ft 23 kts 307°
2026-05-06 14:23 4.70754 -74.14763 8373 ft 24 kts 307°
2026-05-06 14:23 4.70854 -74.14894 8373 ft 24 kts 307°
2026-05-06 14:23 4.70955 -74.15030 8373 ft 25 kts 307°
2026-05-06 14:24 4.71058 -74.15168 8372 ft 25 kts 307°
2026-05-06 14:24 4.71168 -74.15296 8371 ft 23 kts 332°
2026-05-06 14:24 4.71295 -74.15235 8372 ft 22 kts 48°
2026-05-06 14:24 4.71268 -74.15115 8371 ft 23 kts 126°
2026-05-06 14:25 4.71052 -74.14828 8370 ft 84 kts 127°
2026-05-06 14:25 4.70576 -74.14200 8372 ft 140 kts 127°
2026-05-06 14:25 4.69890 -74.13295 8388 ft 183 kts 126°
2026-05-06 14:25 4.69112 -74.12270 9041 ft 185 kts 125°
2026-05-06 14:26 4.68662 -74.11087 9719 ft 186 kts 86°
2026-05-06 14:26 4.69173 -74.09906 10229 ft 191 kts 47°
2026-05-06 14:26 4.70314 -74.09231 10726 ft 195 kts 21°
2026-05-06 14:26 4.71582 -74.08818 11206 ft 194 kts 22°
2026-05-06 14:27 4.72878 -74.08396 11579 ft 201 kts 21°
2026-05-06 14:27 4.74264 -74.07939 11706 ft 219 kts 22°
2026-05-06 14:27 4.75777 -74.07438 11847 ft 239 kts 22°
2026-05-06 14:27 4.77397 -74.06902 12177 ft 248 kts 22°
2026-05-06 14:28 4.79043 -74.06359 12593 ft 252 kts 22°
2026-05-06 14:28 4.80780 -74.05776 12751 ft 275 kts 22°
2026-05-06 14:28 4.82670 -74.05135 12944 ft 298 kts 22°
2026-05-06 14:28 4.84713 -74.04439 13104 ft 321 kts 22°
2026-05-06 14:29 4.86907 -74.03693 13259 ft 344 kts 21°
2026-05-06 14:29 4.89215 -74.02911 13680 ft 355 kts 21°
2026-05-06 14:29 4.91574 -74.02116 14273 ft 360 kts 21°
2026-05-06 14:29 4.93956 -74.01316 14858 ft 363 kts 21°
2026-05-06 14:30 4.96358 -74.00509 15440 ft 365 kts 21°
2026-05-06 14:30 4.98778 -73.99693 15999 ft 368 kts 21°
2026-05-06 14:30 5.01180 -73.98878 16565 ft 371 kts 21°
2026-05-06 14:30 5.03692 -73.98098 17143 ft 375 kts 18°
2026-05-06 14:31 5.06226 -73.97425 17684 ft 378 kts 17°
2026-05-06 14:31 5.08797 -73.96806 18223 ft 382 kts 15°
2026-05-06 14:31 5.11401 -73.96201 18762 ft 385 kts 15°
2026-05-06 14:31 5.13982 -73.95603 19169 ft 387 kts 16°
2026-05-06 14:32 5.16602 -73.94984 19679 ft 388 kts 17°
2026-05-06 14:32 5.19236 -73.94345 20126 ft 391 kts 17°
2026-05-06 14:32 5.21887 -73.93689 20606 ft 393 kts 17°
2026-05-06 14:32 5.24546 -73.93020 21058 ft 396 kts 17°
2026-05-06 14:33 5.27229 -73.92341 21460 ft 398 kts 17°
2026-05-06 14:33 5.29926 -73.91663 21889 ft 401 kts 17°
2026-05-06 14:33 5.32646 -73.90983 22337 ft 404 kts 17°
2026-05-06 14:33 5.35379 -73.90303 22772 ft 406 kts 16°
2026-05-06 14:34 5.38137 -73.89619 23179 ft 409 kts 17°
2026-05-06 14:34 5.40907 -73.88934 23590 ft 411 kts 16°
2026-05-06 14:34 5.43697 -73.88245 23902 ft 414 kts 16°
2026-05-06 14:34 5.46504 -73.87548 24255 ft 416 kts 15°
2026-05-06 14:35 5.49325 -73.86843 24575 ft 419 kts 16°
2026-05-06 14:35 5.52165 -73.86132 24918 ft 422 kts 15°
2026-05-06 14:35 5.55024 -73.85436 25242 ft 424 kts 14°
2026-05-06 14:35 5.57920 -73.84801 25528 ft 427 kts 13°
2026-05-06 14:36 5.60840 -73.84209 25843 ft 429 kts 13°
2026-05-06 14:36 5.63785 -73.83634 26171 ft 431 kts 13°
2026-05-06 14:36 5.66700 -73.83067 26482 ft 434 kts 13°
2026-05-06 14:36 5.69673 -73.82480 26803 ft 436 kts 13°
2026-05-06 14:37 5.72653 -73.81879 27076 ft 438 kts 13°
2026-05-06 14:37 5.75646 -73.81265 27385 ft 440 kts 13°
2026-05-06 14:37 5.78655 -73.80641 27682 ft 442 kts 13°
2026-05-06 14:37 5.81681 -73.80011 27972 ft 444 kts 13°
2026-05-06 14:38 5.84715 -73.79381 28259 ft 447 kts 13°
2026-05-06 14:38 5.87766 -73.78745 28525 ft 449 kts 13°
2026-05-06 14:38 5.90836 -73.78107 28810 ft 451 kts 13°
2026-05-06 14:38 5.93922 -73.77470 29104 ft 453 kts 13°
2026-05-06 14:39 5.97044 -73.76959 29379 ft 457 kts
2026-05-06 14:39 6.00232 -73.76994 29599 ft 461 kts 355°
2026-05-06 14:39 6.03383 -73.77628 29860 ft 464 kts 344°
2026-05-06 14:39 6.06391 -73.78843 30117 ft 468 kts 333°
2026-05-06 14:40 6.09146 -73.80601 30325 ft 472 kts 325°
2026-05-06 14:40 6.11810 -73.82545 30532 ft 473 kts 325°
2026-05-06 14:40 6.14447 -73.84462 30713 ft 475 kts 325°
2026-05-06 14:40 6.17126 -73.86406 30955 ft 476 kts 325°
2026-05-06 14:41 6.19819 -73.88357 31161 ft 478 kts 325°
2026-05-06 14:41 6.22517 -73.90310 31376 ft 479 kts 325°
2026-05-06 14:41 6.25216 -73.92265 31736 ft 477 kts 324°
2026-05-06 14:41 6.27905 -73.94217 32008 ft 476 kts 324°
2026-05-06 14:42 6.33197 -73.98062 32071 ft 461 kts 324°
2026-05-06 14:42 6.38361 -74.01816 32070 ft 456 kts 325°
2026-05-06 14:43 6.43499 -74.05550 32073 ft 455 kts 325°
2026-05-06 14:43 6.48599 -74.09254 32035 ft 455 kts 325°
2026-05-06 14:44 6.53732 -74.12982 32039 ft 455 kts 325°
2026-05-06 14:45 6.61422 -74.18567 32023 ft 454 kts 325°
2026-05-06 14:45 6.66533 -74.22288 32025 ft 453 kts 325°
2026-05-06 14:46 6.71635 -74.26005 32029 ft 452 kts 325°
2026-05-06 14:46 6.76734 -74.29714 32025 ft 452 kts 325°
2026-05-06 14:47 6.81836 -74.33428 32021 ft 452 kts 325°
2026-05-06 14:47 6.86926 -74.37130 32021 ft 451 kts 325°
2026-05-06 14:48 6.92009 -74.40829 32016 ft 451 kts 325°
2026-05-06 14:48 6.97093 -74.44541 32008 ft 451 kts 325°
2026-05-06 14:49 7.02139 -74.48215 32009 ft 450 kts 325°
2026-05-06 14:49 7.07218 -74.51910 31990 ft 450 kts 325°
2026-05-06 14:50 7.12284 -74.55606 31990 ft 450 kts 325°
2026-05-06 14:50 7.17353 -74.59304 31986 ft 449 kts 325°
2026-05-06 14:51 7.22416 -74.62997 31982 ft 449 kts 325°
2026-05-06 14:51 7.27490 -74.66700 31974 ft 450 kts 325°
2026-05-06 14:52 7.32558 -74.70394 31972 ft 450 kts 325°
2026-05-06 14:52 7.37625 -74.74093 31962 ft 450 kts 324°
2026-05-06 14:53 7.42697 -74.77799 31840 ft 451 kts 324°
2026-05-06 14:53 7.45203 -74.79633 31255 ft 450 kts 324°
2026-05-06 14:53 7.47731 -74.81484 30671 ft 448 kts 324°
2026-05-06 14:53 7.50247 -74.83325 30075 ft 446 kts 324°
2026-05-06 14:54 7.52756 -74.85163 29436 ft 444 kts 324°
2026-05-06 14:54 7.55241 -74.86983 28862 ft 440 kts 325°
2026-05-06 14:54 7.57709 -74.88783 28304 ft 436 kts 325°
2026-05-06 14:54 7.60157 -74.90567 27747 ft 432 kts 325°
2026-05-06 14:55 7.62582 -74.92338 27193 ft 429 kts 325°
2026-05-06 14:55 7.64987 -74.94098 26662 ft 425 kts 325°
2026-05-06 14:55 7.67371 -74.95845 26126 ft 422 kts 325°
2026-05-06 14:55 7.69734 -74.97578 25630 ft 418 kts 325°
2026-05-06 14:56 7.72078 -74.99293 25134 ft 414 kts 325°
2026-05-06 14:56 7.74401 -75.00990 24648 ft 411 kts 325°
2026-05-06 14:56 7.76705 -75.02680 24164 ft 408 kts 325°
2026-05-06 14:56 7.78996 -75.04358 23669 ft 406 kts 325°
2026-05-06 14:57 7.81274 -75.06027 23132 ft 403 kts 325°
2026-05-06 14:57 7.83535 -75.07683 22631 ft 399 kts 325°
2026-05-06 14:57 7.85746 -75.09301 22153 ft 396 kts 326°
2026-05-06 14:57 7.87971 -75.10930 21661 ft 394 kts 326°
2026-05-06 14:58 7.90182 -75.12549 21169 ft 392 kts 326°
2026-05-06 14:58 7.92384 -75.14161 20669 ft 390 kts 326°
2026-05-06 14:58 7.94579 -75.15769 20160 ft 389 kts 326°
2026-05-06 14:58 7.96769 -75.17373 19671 ft 389 kts 326°
2026-05-06 14:59 7.98959 -75.18975 19168 ft 389 kts 327°
2026-05-06 14:59 8.01146 -75.20576 18678 ft 389 kts 327°
2026-05-06 14:59 8.03336 -75.22182 18155 ft 389 kts 327°
2026-05-06 14:59 8.05526 -75.23788 17617 ft 389 kts 327°
2026-05-06 15:00 8.07711 -75.25389 17060 ft 389 kts 327°
2026-05-06 15:00 8.09888 -75.26989 16689 ft 384 kts 327°
2026-05-06 15:00 8.12044 -75.28575 16205 ft 383 kts 327°
2026-05-06 15:00 8.14198 -75.30155 15726 ft 382 kts 327°
2026-05-06 15:01 8.16345 -75.31728 15245 ft 381 kts 327°
2026-05-06 15:01 8.18490 -75.33301 14756 ft 381 kts 327°
2026-05-06 15:01 8.20629 -75.34872 14276 ft 380 kts 326°
2026-05-06 15:01 8.22765 -75.36441 13790 ft 380 kts 326°
2026-05-06 15:02 8.24899 -75.38008 13258 ft 379 kts 326°
2026-05-06 15:02 8.27022 -75.39567 12758 ft 376 kts 326°
2026-05-06 15:02 8.29128 -75.41113 12322 ft 372 kts 326°
2026-05-06 15:02 8.31217 -75.42643 11900 ft 368 kts 326°
2026-05-06 15:03 8.33287 -75.44160 11406 ft 366 kts 326°
2026-05-06 15:03 8.35333 -75.45659 11012 ft 361 kts 326°
2026-05-06 15:03 8.37358 -75.47147 10560 ft 359 kts 326°
2026-05-06 15:03 8.39338 -75.48605 10416 ft 346 kts 325°
2026-05-06 15:04 8.41244 -75.50009 10293 ft 330 kts 325°
2026-05-06 15:04 8.43045 -75.51337 9970 ft 315 kts 325°
2026-05-06 15:04 8.44795 -75.52625 9404 ft 309 kts 326°
2026-05-06 15:04 8.46501 -75.53878 8745 ft 306 kts 326°
2026-05-06 15:05 8.48218 -75.55137 8091 ft 303 kts 326°
2026-05-06 15:05 8.49918 -75.56387 7466 ft 301 kts 325°
2026-05-06 15:05 8.51601 -75.57627 6845 ft 298 kts 324°
2026-05-06 15:05 8.53265 -75.58852 6216 ft 295 kts 324°
2026-05-06 15:06 8.54916 -75.60064 5628 ft 291 kts 325°
2026-05-06 15:06 8.56537 -75.61255 5089 ft 286 kts 325°
2026-05-06 15:06 8.58138 -75.62432 4561 ft 283 kts 326°
2026-05-06 15:06 8.59721 -75.63595 4044 ft 279 kts 325°
2026-05-06 15:07 8.61235 -75.64710 3938 ft 257 kts 325°
2026-05-06 15:07 8.62611 -75.65724 3880 ft 234 kts 325°
2026-05-06 15:07 8.63479 -75.66363 3823 ft 223 kts 325°
2026-05-06 15:07 8.64704 -75.67264 3736 ft 215 kts 326°
2026-05-06 15:08 8.65898 -75.68144 3641 ft 211 kts 326°
2026-05-06 15:08 8.67068 -75.69005 3550 ft 212 kts 326°
2026-05-06 15:08 8.68257 -75.69881 3460 ft 210 kts 325°
2026-05-06 15:08 8.69436 -75.70749 3370 ft 210 kts 326°
2026-05-06 15:09 8.70600 -75.71663 3078 ft 215 kts 320°
2026-05-06 15:09 8.71716 -75.72679 2781 ft 217 kts 317°
2026-05-06 15:09 8.72777 -75.73690 2509 ft 202 kts 316°
2026-05-06 15:09 8.73766 -75.74640 2220 ft 190 kts 316°
2026-05-06 15:10 8.74691 -75.75534 1937 ft 176 kts 315°
2026-05-06 15:10 8.75543 -75.76335 1667 ft 159 kts 316°
2026-05-06 15:10 8.76324 -75.77057 1454 ft 147 kts 316°
2026-05-06 15:10 8.77063 -75.77736 1258 ft 141 kts 316°
2026-05-06 15:11 8.77792 -75.78405 1074 ft 141 kts 316°
2026-05-06 15:11 8.78523 -75.79074 892 ft 142 kts 316°
2026-05-06 15:11 8.79246 -75.79738 691 ft 140 kts 317°
2026-05-06 15:11 8.79970 -75.80398 488 ft 140 kts 317°
2026-05-06 15:12 8.80690 -75.81056 302 ft 138 kts 317°
2026-05-06 15:12 8.81394 -75.81706 111 ft 137 kts 318°
2026-05-06 15:12 8.82070 -75.82325 31 ft 119 kts 317°
2026-05-06 15:12 8.82507 -75.82722 29 ft 59 kts 318°
2026-05-06 15:13 8.82762 -75.82952 29 ft 44 kts 318°
2026-05-06 15:13 8.82969 -75.83140 30 ft 33 kts 317°
2026-05-06 15:13 8.83053 -75.83241 30 ft 9 kts 303°
2026-05-06 15:13 8.83075 -75.83235 31 ft 2 kts 115°
2026-05-06 15:14 8.83054 -75.83217 30 ft 7 kts 138°
2026-05-06 15:14 8.82999 -75.83167 31 ft 15 kts 137°
2026-05-06 15:14 8.82915 -75.83090 30 ft 16 kts 138°
2026-05-06 15:14 8.82824 -75.83009 28 ft 18 kts 138°
2026-05-06 15:15 8.82728 -75.82921 29 ft 19 kts 137°
2026-05-06 15:15 8.82634 -75.82835 28 ft 18 kts 139°
2026-05-06 15:15 8.82546 -75.82755 28 ft 16 kts 138°
2026-05-06 15:15 8.82471 -75.82685 30 ft 12 kts 133°
2026-05-06 15:16 8.82459 -75.82617 31 ft 8 kts 87°
2026-05-06 15:16 8.82479 -75.82591 32 ft 4 kts 15°
2026-05-06 15:16 8.82498 -75.82585 32 ft 4 kts 16°
2026-05-06 15:16 8.82525 -75.82565 32 ft 5 kts 48°
2026-05-06 15:17 8.82541 -75.82548 32 ft 2 kts 48°
2026-05-06 15:17 8.82541 -75.82547 32 ft 0 kts 48°